Find Local Weather

World > North America > United States > Kansas

Leavenworth, Kansas Regional Weather

Lat: 39.31N, Lon: 94.92W
Wx Zone: KSZ103
Warning FLW WEATHER ALERT - (More Info. Click Here) Warning
Feedback
Expires:201808160100;;122714
ASUS43 KEAX 160010
RWREAX

WEATHER ROUNDUP FOR EASTERN KANSAS AND NORTHWEST MISSOURI
NATIONAL WEATHER SERVICE KANSAS CITY/PLEASANT HILL MO
700 PM CDT WED AUG 15 2018


KSZ040-057-103>105-MOZ028-029-037-043-160100-
...KANSAS CITY METROPOLITAN AREA...
  
CITY           SKY/WX    TMP DP  RH WIND       PRES   REMARKS
K.C. INTL      MOSUNNY   82  72  71 NW3       29.86S                  
6HR MIN TEMP:  80; 6HR MAX TEMP:  86; 6HR PCP: TRACE;                

K.C. DOWNTOWN  CLOUDY    82  72  71 SE5       29.85S                  
6HR MIN TEMP:  79; 6HR MAX TEMP:  86;                                

LEES SUMMIT    PTSUNNY   81  71  71 W6        29.87R                  
6HR MIN TEMP:  78; 6HR MAX TEMP:  85; 6HR PCP: TRACE;                

OLATHE - IXD   MOSUNNY   83  71  67 N5        29.87S                  
6HR MIN TEMP:  78; 6HR MAX TEMP:  85; 6HR PCP:  0.02;                

OLATHE - OJC   CLOUDY    82  70  66 NW3       29.87S                  
6HR MIN TEMP:  78; 6HR MAX TEMP:  85; 6HR PCP: TRACE;                

LAWRENCE       SUNNY     85  71  63 N7        29.85S HX  90           

$$
 

SKY/WX - Weather  TMP - Temperature  DP - Dewpoint  RH - Relative Humidity
WIND - Wind Direction/Speed PRES - Barometric Pressure